Regional Weather Roundup
Issued by NWS

Home | Current Version | Previous Version | Graphics & Text | Print | Product List | Glossary On
Versions: 1 2 3 4 5 6 7 8 9 10 11 12 13 14 15 16 17 18 19 20 21 22 23 24 25 26 27 28 29 30 31 32 33 34 35 36 37 38 39 40 41 42 43 44 45 46 47 48 49 50
000
ASUS44 KLUB 272110
RWRTX
WEST TEXAS WEATHER ROUNDUP
NATIONAL WEATHER SERVICE LUBBOCK TX
300 PM CST TUE JAN 27 2015

NOTE: "FAIR" INDICATES FEW OR NO CLOUDS BELOW 12,000 FEET WITH NO
SIGNIFICANT WEATHER AND/OR OBSTRUCTIONS TO VISIBILITY.

TXZ004-006>008-010-012-014-016-OKZ002-272200-
TEXAS PANHANDLE/OKLAHOMA PANHANDLE

CITY           SKY/WX    TMP DP  RH WIND       PRES   REMARKS
AMARILLO       MOSUNNY   71  31  22 SW10      30.16F
BORGER         SUNNY     73  31  21 SW13      30.13F
CANADIAN       MOSUNNY   78  28  16 SW13G20   30.09S
DALHART        MOSUNNY   71  30  21 SW16      30.15F
DUMAS          MOSUNNY   68  34  27 SW18      30.15F
GUYMON         MOSUNNY   77  29  17 SW17      30.06F
HEREFORD       MOSUNNY   71  34  25 SW12      30.17F
PAMPA          MOSUNNY   72  30  21 SW15      30.14F
PERRYTON         N/A     76  29  17 SW21      30.10S
$$

TXZ026-029-035-045-048-272200-
SOUTHERN PANHANDLE/SOUTH PLAINS/ROLLING PLAINS

CITY           SKY/WX    TMP DP  RH WIND       PRES   REMARKS
CHILDRESS      MOSUNNY   78  31  17 SW10      30.12F
SEMINOLE       SUNNY     71  30  21 S3        30.20F
LUBBOCK        MOSUNNY   73  31  21 W13       30.17F
PLAINVIEW      SUNNY     71  33  24 SW10      30.16F
SNYDER         MOSUNNY  N/A N/A N/A S3        30.17F
$$

TXZ052-054-060>062-072-078-127-140-154-169-272200-
PERMIAN BASIN/CONCHO VALLEY/BIG COUNTRY/EDWARDS PLATEAU

CITY           SKY/WX    TMP DP  RH WIND       PRES   REMARKS
ABILENE        SUNNY     77  37  23 SE5       30.15F
BIG SPRING     SUNNY     74  28  18 S7        30.20F
BRADY          SUNNY     79  34  19 SW3       30.15F
BROWNWOOD      SUNNY     77  36  22 S6        30.15S
JUNCTION       SUNNY     79  32  18 W8        30.15F
MIDLAND        SUNNY     73  31  21 W6        30.18F
ODESSA         SUNNY     71  30  21 CALM      30.18F
SAN ANGELO     SUNNY     75  30  19 SW5       30.16F
SONORA         SUNNY     75  32  20 SW8       30.21F
SWEETWATER     SUNNY     74  34  23 SW6       30.19F
WINK           SUNNY     72  27  18 VRB5      30.17F
$$

TXZ055-058-074-075-080-082-272200-
FAR WEST/SOUTHWEST MOUNTAINS/TRANS PECOS

CITY           SKY/WX    TMP DP  RH WIND       PRES   REMARKS
ALPINE         SUNNY     70  45  40 W6        30.30F
DRYDEN           N/A     76  35  22 VRB3      30.16F
EL PASO        MOSUNNY   65  39  38 SE5       30.23F
FORT STOCKTON  SUNNY     69  34  27 VRB3      30.20F
GUADALUPE PASS SUNNY     65  32  29 SW23G30   30.28F
MARFA          SUNNY     68  43  40 SE5       30.28F
PECOS          SUNNY     71  36  27 SW3       30.18F
PRESIDIO       FAIR      67  41  38 CALM      30.21F
$$

TXZ014-016-019-021>030-083-272200
TEXAS TECH WEST TEXAS MESONET/TEXAS PANHANDLE/NORTHERN SOUTH PLAINS

CITY           SKY/WX    TMP DP  RH WIND       PRES   REMARKS
ABERNATHY 5ENE   N/A     72  31  22 SW10      30.18F
AMARILLO 9NNE    N/A     72  34  24 S12       30.14F
AMARILLO 7SSE    N/A     73  33  22 SW9       30.17F
AMHERST 1NE      N/A     72  29  20 SW8       30.17F
BOOTLEG 11WNW    N/A     67  35  31 SW13      30.20F
CANADIAN 6E      N/A     80  32  17 SW14      30.07F
CAPROCK CYN SP   N/A     74  31  20 S8        30.15S
CHILDRESS 2NNE   N/A     78  29  16 S13       30.11F
CLARENDON 2WSW   N/A     75  31  19 SW14      30.13F
CLAUDE 12SW      N/A     72  32  22 S8        30.15F
DIMMITT 2NE      N/A     69  32  25 S10       30.18F
FLOYDADA 2NNE    N/A     73  27  18 SW8       30.16F
FRIONA 2NE       N/A     70  31  23 W8        30.18F
GOODLETT 3W      N/A     79  31  17 SW9       30.10F
HART 3N          N/A     70  30  22 SW8       30.18F
HEREFORD 2NW     N/A     70  32  24 SW9       30.17F
MCLEAN 1E        N/A     73  30  19 SW9       30.11F
MEMPHIS 1NE      N/A     76  30  18 S7        30.12S
MULESHOE 2SSW    N/A     71  29  21 SW7       30.18F
OLTON 6S         N/A     72  29  20 SW7       30.17F
PALO DURO SP     N/A     74  32  22 SW8       30.17F
PAMPA 2E         N/A     71  32  23 SW8       30.13F
PLAINVIEW 1S     N/A     71  33  24 SW7       30.16F
SILVERTON 7ESE   N/A     73  31  20 S8        30.16F
TULIA 2ENE       N/A     71  32  24 S10       30.17F
TURKEY 2WSW      N/A     76  31  19 S8        30.13S
UMBARGER 3NNE    N/A     69  36  29 SW12      30.17F
$$

TXZ033>036-039>041-045>048-272200
TEXAS TECH WEST TEXAS MESONET/SOUTH PLAINS

CITY           SKY/WX    TMP DP  RH WIND       PRES   REMARKS
AIKEN 3WSW       N/A     72  33  23 S13       30.17F
ANDREWS 2NE      N/A     73  26  17 SW5       30.18F
ANTON 6SSW       N/A     72  34  24 W6        30.17F
BROWNFIELD 2S    N/A     71  31  22 S7        30.18F
DENVR CTY 7WNW   N/A     70  26  19 SW7       30.19F
GAIL 2ESE        N/A     74  32  21 SW5       30.16F
LAMESA 2SE       N/A     73  32  22 S8        30.18F
LEVELLAND 4S     N/A     73  28  18 SW10      30.17F
LUBBOCK 3WNW     N/A     73  31  20 SW8       30.18F
MORTON 1ENE      N/A     72  30  21 SW6       30.18F
ODONNELL 1N      N/A     73  26  17 S6        30.18F
PLAINS 3N        N/A     72  28  19 SW5       30.19F
RALLS 1SE        N/A     73  31  21 SW8       30.18F
REESE CENTER     N/A     71  30  21 SW9       30.18F
SEAGRAVES 1SW    N/A     72  29  20 SW5       30.18F
SEMINOLE 2NNE    N/A     73  27  18 SW6       30.18F
SLATON 2NE       N/A     73  30  20 W8        30.17F
SNYDER 3E        N/A     75  34  22 S7        30.16F
SUNDOWN 8SW      N/A     73  29  20 SW7       30.18F
TAHOKA 3NNE      N/A     74  29  19 S10       30.17F
WOLFFORTH 6SSW   N/A     73  32  22 SW8       30.18F
$$

TXZ031-032-036>038-042>044-272200-
TEXAS TECH WEST TEXAS MESONET/ROLLING PLAINS

CITY           SKY/WX    TMP DP  RH WIND       PRES   REMARKS
ASPERMONT 3NE    N/A     78  34  20 S6        30.14S
FLUVANNA 3WNW    N/A     72  32  22 SW9       30.17S
GRAHAM 5SSW      N/A     74  30  19 S7        30.17F
GUTHRIE 10WSW    N/A     78  31  18 SW7       30.13F
HASKELL 1NW      N/A     75  36  24 SW7       30.13F
JAYTON 1SSE      N/A     77  32  19 S7        30.14F
KNOX CITY 3NW    N/A     79  35  20 S6        30.13F
LK A HENRY 1NW   N/A     76  34  21 SW3       30.15F
NORTHFIELD 1S    N/A     79  32  17 S8        30.12F
ODELL 4ENE       N/A     78  34  20 S9        30.11F
PADUCAH 10SW     N/A     79  31  17 S13       30.12F
POST 1NE         N/A     77  30  18 SW9       30.16F
RRING SPRGS 3N   N/A     75  33  21 S12       30.15F
SEYMOUR 3NW      N/A     74  41  30 S6        30.12F
SPUR 1W          N/A     76  29  17 SW8       30.14F
WEINERT 2NNE     N/A     78  39  24 SW7       30.13F
WHITE RVR 6NE    N/A     76  32  20 SW9       30.15F
$$

TXZ052-054-060>062-072-078-127-140-154-169-272200-
TEXAS TECH WEST TEXAS MESONET/PERMIAN BASIN/
CONCHO VALLEY/BIG COUNTRY/EDWARDS PLATEAU

CITY           SKY/WX    TMP DP  RH WIND       PRES   REMARKS
COYANOSA 2N      N/A     72  34  25 SW5       30.18F
JUNCTION 1SSW    N/A     79  33  18 SW2       30.15F
MERTZON 3NNE     N/A     76  31  19 W3        30.17F
SAN ANGELO 7NW   N/A     76  28  17 S5        30.16F
STRLNG CT 4WSW   N/A     76  29  18 S6        30.17F
ST LAWRNCE 5SW   N/A     73  25  16 NW2       30.18F
SWEETWATR 11SW   N/A     74  35  24 SW6       30.17F
WALL 1E          N/A     74  38  26 SW3       30.17F
$$

TXZ055-058-074-075-080-082-272200-
TEXAS TECH WEST TEXAS MESONET/FAR WEST/SOUTHWEST MOUNTAINS/TRANS PECOS

CITY           SKY/WX    TMP DP  RH WIND       PRES   REMARKS
PRSMN GAP BBNP   N/A     75  39  27 S7        30.18F
$$


USA.gov is the U.S. government's official web portal to all federal, state and local government web resources and services.